Tracking 19242 objects as of 20-Sep-2018
HD Live streaming from Space Station
objects crossing your sky now

BEIDOU 3M11

Track BEIDOU 3M11 now!
BEIDOU 3M11 is classified as:


NORAD ID: 43602
Int'l Code: 2018-067A
Perigee: 21,546.6 km
Apogee: 22,204.6 km
Inclination: 55.0 °
Period: 787.4 minutes
Semi major axis: 28246 km
RCS: Unknown
Launch date: August 24, 2018
Source: People's Republic of China (PRC)
Launch site: Xichang Space Center, China (XSC)
aabbcc
Your satellite tracking list
Your tracking list is empty




NASA's NSSDC Master Catalog

Two Line Element Set (TLE):
1 43602U 18067A   18260.66333311  .00000019  00000-0  00000+0 0  9999
2 43602  54.9919 277.5859 0116479 177.7126 182.6638  1.82874438   432
Source of the keplerian elements: AFSPC